Location: Unspecified
(43.4354°N, 0.0000°E)
Time: 16:53:00
(UTC+00:00)

Vanguard 2 Rocket - Pass Details

Date: 27 June 2019
Orbit: 554 x 3326 km, 32.9° (Epoch: 15 July)

Event Time Altitude Azimuth Distance (km) Brightness Sun altitude
Rises 03:34:47 0° 268° (W) 5,861 10.6 -7.4°
Reaches altitude 10° 03:40:28 10° 250° (WSW) 5,337 10.2 -6.7°
Maximum altitude 03:49:19 17° 218° (SW) 5,314 10.2 -5.4°
Drops below altitude 10° 03:59:34 10° 186° (S) 6,236 10.7 -4.0°
Sets 04:07:29 0° 169° (S) 7,287 11.2 -2.8°
